Location: Passo di Treia
(43.2833°N, 13.3333°E)
Time: 20:30:57
(UTC+00:00)

Cosmos 2333 Rocket - Pass Details

Date: 09 December 2019
Orbit: 837 x 864 km, 70.8° (Epoch: 21 January)

Event Time Altitude Azimuth Distance (km) Brightness Sun altitude
Rises 15:56:31 0° 205° (SSW) 3,405 6.3 -4.9°
Reaches altitude 10° 15:58:57 10° 205° (SSW) 2,477 5.5 -5.3°
Maximum altitude 16:04:40 85° 294° (WNW) 867 2.4 -6.2°
Drops below altitude 10° 16:10:28 10° 24° (NNE) 2,509 4.2 -7.2°
Enters shadow 16:12:52 - 25° (NNE) 3,421 4.9 -7.6°
